SVA820 WARR-WIII

Flight info

Callsign SVA820
Flight time N/A
Altitude 36000
Route LASEM5F LASEM T2 KALUT T6 KURUS KURUS2G
Aircraft B77W/H-SDE1E2E3FGHIJ2J3J4J5M1RWXYZ/LB1D1

Departure

Time 2026-05-05 02:49
Airport Juanda International Airport (WARR)

Arrival

Time N/A
Airport Soekarno-Hatta International Airport (WIII)
Time Latitude Longitude Altitude Speed Heading
2026-05-05 02:38 -7.37633 112.79645 14 ft 0 kts
2026-05-05 02:39 -7.37641 112.79643 14 ft 2 kts
2026-05-05 02:39 -7.37655 112.79641 14 ft 0 kts
2026-05-05 02:39 -7.37666 112.79640 14 ft 2 kts
2026-05-05 02:40 -7.37681 112.79642 14 ft 2 kts 340°
2026-05-05 02:40 -7.37694 112.79649 14 ft 2 kts 324°
2026-05-05 02:40 -7.37705 112.79658 14 ft 2 kts 308°
2026-05-05 02:40 -7.37713 112.79671 14 ft 2 kts 292°
2026-05-05 02:41 -7.37716 112.79682 14 ft 0 kts 279°
2026-05-05 02:41 -7.37717 112.79684 14 ft 0 kts 278°
2026-05-05 02:43 -7.37714 112.79670 14 ft 3 kts 279°
2026-05-05 02:43 -7.37708 112.79632 14 ft 7 kts 279°
2026-05-05 02:43 -7.37698 112.79572 14 ft 10 kts 279°
2026-05-05 02:43 -7.37688 112.79493 14 ft 12 kts 266°
2026-05-05 02:44 -7.37734 112.79422 14 ft 13 kts 251°
2026-05-05 02:44 -7.37732 112.79325 14 ft 14 kts 279°
2026-05-05 02:44 -7.37715 112.79217 14 ft 16 kts 279°
2026-05-05 02:44 -7.37718 112.79104 14 ft 16 kts 232°
2026-05-05 02:45 -7.37829 112.79068 14 ft 17 kts 202°
2026-05-05 02:45 -7.37854 112.78961 15 ft 17 kts 278°
2026-05-05 02:45 -7.37834 112.78838 17 ft 18 kts 279°
2026-05-05 02:45 -7.37811 112.78699 17 ft 21 kts 279°
2026-05-05 02:46 -7.37785 112.78535 17 ft 25 kts 279°
2026-05-05 02:46 -7.37760 112.78385 18 ft 19 kts 279°
2026-05-05 02:46 -7.37737 112.78248 17 ft 20 kts 278°
2026-05-05 02:46 -7.37716 112.78112 17 ft 19 kts 279°
2026-05-05 02:47 -7.37694 112.77977 17 ft 19 kts 279°
2026-05-05 02:47 -7.37671 112.77840 17 ft 19 kts 279°
2026-05-05 02:47 -7.37650 112.77703 17 ft 19 kts 279°
2026-05-05 02:47 -7.37627 112.77565 17 ft 20 kts 279°
2026-05-05 02:48 -7.37615 112.77426 17 ft 19 kts 250°
2026-05-05 02:48 -7.37733 112.77376 17 ft 18 kts 167°
2026-05-05 02:48 -7.37790 112.77486 17 ft 19 kts 99°
2026-05-05 02:48 -7.37811 112.77617 17 ft 19 kts 99°
2026-05-05 02:49 -7.37854 112.77879 18 ft 70 kts 99°
2026-05-05 02:49 -7.37987 112.78710 18 ft 164 kts 99°
2026-05-05 02:49 -7.38165 112.79952 708 ft 186 kts 98°
2026-05-05 02:49 -7.38386 112.81190 1806 ft 188 kts 98°
2026-05-05 02:50 -7.38630 112.82518 2520 ft 203 kts 97°
2026-05-05 02:50 -7.38871 112.83952 3273 ft 219 kts 94°
2026-05-05 02:50 -7.38708 112.85503 4104 ft 232 kts 69°
2026-05-05 02:50 -7.37875 112.86910 4913 ft 247 kts 45°
2026-05-05 02:51 -7.36399 112.87884 5769 ft 263 kts 19°
2026-05-05 02:51 -7.34556 112.88118 6711 ft 274 kts 360°
2026-05-05 02:51 -7.32661 112.88064 7672 ft 281 kts 358°
2026-05-05 02:51 -7.30663 112.87987 8301 ft 286 kts 358°
2026-05-05 02:52 -7.28659 112.87910 8466 ft 288 kts 358°
2026-05-05 02:52 -7.26663 112.87835 8487 ft 287 kts 358°
2026-05-05 02:52 -7.24667 112.87762 8484 ft 287 kts 358°
2026-05-05 02:52 -7.22649 112.87689 8484 ft 287 kts 358°
2026-05-05 02:53 -7.20652 112.87620 8496 ft 287 kts 358°
2026-05-05 02:53 -7.18644 112.87552 8486 ft 287 kts 358°
2026-05-05 02:53 -7.16639 112.87485 8488 ft 287 kts 357°
2026-05-05 02:53 -7.14700 112.87006 8490 ft 289 kts 332°
2026-05-05 02:54 -7.13162 112.85698 8496 ft 292 kts 305°
2026-05-05 02:54 -7.12290 112.83883 8513 ft 294 kts 288°
2026-05-05 02:54 -7.11777 112.81880 8503 ft 295 kts 281°
2026-05-05 02:54 -7.11388 112.79850 8498 ft 296 kts 280°
2026-05-05 02:55 -7.11021 112.77801 8489 ft 295 kts 280°
2026-05-05 02:55 -7.10662 112.75787 8490 ft 294 kts 280°
2026-05-05 02:55 -7.10300 112.73762 8493 ft 293 kts 280°
2026-05-05 02:55 -7.09939 112.71744 8500 ft 294 kts 280°
2026-05-05 02:56 -7.09573 112.69700 8498 ft 294 kts 280°
2026-05-05 02:56 -7.09211 112.67677 8494 ft 294 kts 280°
2026-05-05 02:56 -7.08850 112.65659 8490 ft 294 kts 280°
2026-05-05 02:56 -7.08489 112.63644 8482 ft 294 kts 280°
2026-05-05 02:57 -7.08124 112.61603 8488 ft 294 kts 280°
2026-05-05 02:57 -7.07762 112.59586 8487 ft 294 kts 280°
2026-05-05 02:57 -7.07392 112.57520 8621 ft 311 kts 280°
2026-05-05 02:57 -7.07013 112.55415 9829 ft 308 kts 280°
2026-05-05 02:58 -7.06637 112.53317 10971 ft 309 kts 280°
2026-05-05 02:58 -7.06245 112.51134 11666 ft 326 kts 280°
2026-05-05 02:58 -7.05835 112.48850 12336 ft 342 kts 280°
2026-05-05 02:58 -7.05404 112.46444 13033 ft 358 kts 279°
2026-05-05 02:59 -7.04958 112.43954 13647 ft 374 kts 279°
2026-05-05 02:59 -7.04483 112.41293 13893 ft 396 kts 279°
2026-05-05 02:59 -7.03995 112.38563 13910 ft 399 kts 279°
2026-05-05 02:59 -7.03503 112.35821 13924 ft 399 kts 279°
2026-05-05 03:00 -7.03010 112.33073 13916 ft 399 kts 280°
2026-05-05 03:00 -7.02494 112.30311 13907 ft 399 kts 283°
2026-05-05 03:00 -7.01656 112.27663 13904 ft 399 kts 291°
2026-05-05 03:00 -7.00640 112.25076 13905 ft 398 kts 291°
2026-05-05 03:01 -6.99603 112.22470 13913 ft 398 kts 291°
2026-05-05 03:01 -6.98582 112.19898 13914 ft 398 kts 291°
2026-05-05 03:01 -6.97564 112.17333 13909 ft 397 kts 291°
2026-05-05 03:01 -6.96526 112.14760 13908 ft 397 kts 294°
2026-05-05 03:02 -6.95163 112.12296 13986 ft 410 kts 302°
2026-05-05 03:02 -6.93600 112.09901 14959 ft 412 kts 303°
2026-05-05 03:02 -6.92043 112.07528 16130 ft 408 kts 303°
2026-05-05 03:02 -6.90478 112.05140 17008 ft 412 kts 303°
2026-05-05 03:03 -6.88879 112.02700 17718 ft 420 kts 303°
2026-05-05 03:03 -6.87281 112.00262 18467 ft 426 kts 303°
2026-05-05 03:03 -6.85635 111.97747 19278 ft 430 kts 303°
2026-05-05 03:03 -6.83992 111.95239 20014 ft 435 kts 303°
2026-05-05 03:04 -6.82308 111.92667 20788 ft 439 kts 303°
2026-05-05 03:04 -6.80643 111.90124 21487 ft 444 kts 303°
2026-05-05 03:04 -6.78929 111.87508 22208 ft 448 kts 303°
2026-05-05 03:04 -6.77221 111.84901 22907 ft 453 kts 303°
2026-05-05 03:05 -6.75483 111.82246 23573 ft 458 kts 303°
2026-05-05 03:05 -6.73697 111.79520 23885 ft 463 kts 303°
2026-05-05 03:05 -6.71940 111.76839 23906 ft 462 kts 303°
2026-05-05 03:05 -6.70176 111.74148 23909 ft 461 kts 303°
2026-05-05 03:06 -6.68415 111.71461 23910 ft 461 kts 303°
2026-05-05 03:06 -6.66633 111.68744 23912 ft 461 kts 303°
2026-05-05 03:06 -6.64878 111.66067 23914 ft 462 kts 303°
2026-05-05 03:06 -6.63116 111.63381 23914 ft 461 kts 303°
2026-05-05 03:07 -6.61425 111.60608 23933 ft 463 kts 298°
2026-05-05 03:07 -6.59911 111.57728 24387 ft 472 kts 297°
2026-05-05 03:07 -6.58403 111.54819 25275 ft 471 kts 297°
2026-05-05 03:07 -6.56885 111.51891 26123 ft 471 kts 297°
2026-05-05 03:08 -6.55369 111.48968 26762 ft 476 kts 297°
2026-05-05 03:08 -6.53837 111.46016 27287 ft 483 kts 297°
2026-05-05 03:08 -6.52278 111.43011 27866 ft 489 kts 297°
2026-05-05 03:08 -6.50694 111.39960 28538 ft 492 kts 297°
2026-05-05 03:09 -6.49118 111.36926 29213 ft 495 kts 297°
2026-05-05 03:09 -6.47520 111.33850 30013 ft 494 kts 297°
2026-05-05 03:09 -6.45941 111.30814 30997 ft 489 kts 297°
2026-05-05 03:09 -6.44394 111.27839 32023 ft 482 kts 297°
2026-05-05 03:10 -6.42845 111.24863 32907 ft 478 kts 297°
2026-05-05 03:10 -6.41319 111.21932 33679 ft 477 kts 297°
2026-05-05 03:10 -6.39795 111.19006 34388 ft 476 kts 297°
2026-05-05 03:10 -6.38252 111.16042 35153 ft 474 kts 297°
2026-05-05 03:11 -6.36735 111.13130 35812 ft 473 kts 297°
2026-05-05 03:11 -6.33651 111.07309 35888 ft 471 kts 298°
2026-05-05 03:12 -6.30525 111.01505 35889 ft 470 kts 298°
2026-05-05 03:12 -6.27363 110.95626 35889 ft 471 kts 298°
2026-05-05 03:13 -6.24237 110.89814 35888 ft 472 kts 298°
2026-05-05 03:13 -6.21105 110.83988 35889 ft 472 kts 298°
2026-05-05 03:14 -6.17968 110.78153 35888 ft 472 kts 298°
2026-05-05 03:14 -6.14856 110.72367 35888 ft 471 kts 298°
2026-05-05 03:15 -6.11739 110.66573 35888 ft 472 kts 298°
2026-05-05 03:15 -6.08612 110.60761 35890 ft 472 kts 298°
2026-05-05 03:16 -6.05477 110.54937 35888 ft 473 kts 298°
2026-05-05 03:16 -6.02358 110.49144 35890 ft 472 kts 298°
2026-05-05 03:17 -5.99227 110.43330 35890 ft 473 kts 298°
2026-05-05 03:17 -5.97004 110.37150 35909 ft 475 kts 279°
2026-05-05 03:18 -5.96612 110.30502 35889 ft 475 kts 270°
2026-05-05 03:18 -5.96574 110.23882 35889 ft 476 kts 270°
2026-05-05 03:19 -5.96548 110.13928 35888 ft 476 kts 270°
2026-05-05 03:19 -5.96539 110.07285 35887 ft 477 kts 270°
2026-05-05 03:20 -5.96533 110.00600 35887 ft 476 kts 270°
2026-05-05 03:20 -5.96528 109.93981 35889 ft 477 kts 270°
2026-05-05 03:21 -5.96523 109.87299 35887 ft 477 kts 270°
2026-05-05 03:21 -5.96517 109.80673 35884 ft 477 kts 270°
2026-05-05 03:22 -5.96511 109.74010 35885 ft 478 kts 270°
2026-05-05 03:22 -5.96505 109.67383 35889 ft 476 kts 270°
2026-05-05 03:23 -5.96497 109.60688 35888 ft 478 kts 270°
2026-05-05 03:23 -5.96489 109.54076 35884 ft 478 kts 270°
2026-05-05 03:24 -5.96481 109.47398 35875 ft 479 kts 270°
2026-05-05 03:24 -5.96471 109.40713 35871 ft 478 kts 270°
2026-05-05 03:25 -5.96461 109.34045 35880 ft 479 kts 270°
2026-05-05 03:25 -5.96450 109.27394 35882 ft 479 kts 270°
2026-05-05 03:26 -5.96438 109.20709 35882 ft 478 kts 270°
2026-05-05 03:26 -5.96425 109.14036 35883 ft 479 kts 270°
2026-05-05 03:27 -5.96411 109.07362 35888 ft 480 kts 270°
2026-05-05 03:27 -5.96396 109.00640 35887 ft 480 kts 270°
2026-05-05 03:28 -5.96381 108.93972 35887 ft 481 kts 270°
2026-05-05 03:28 -5.96365 108.87262 35887 ft 480 kts 270°
2026-05-05 03:29 -5.96348 108.80557 35888 ft 478 kts 270°
2026-05-05 03:29 -5.96331 108.73918 35888 ft 479 kts 270°
2026-05-05 03:30 -5.96313 108.67317 35129 ft 473 kts 270°
2026-05-05 03:30 -5.96303 108.63982 34082 ft 475 kts 270°
2026-05-05 03:30 -5.96293 108.60674 33284 ft 473 kts 270°
2026-05-05 03:31 -5.96284 108.57410 32505 ft 471 kts 270°
2026-05-05 03:31 -5.96274 108.54100 31728 ft 488 kts 270°
2026-05-05 03:31 -5.96265 108.50636 30838 ft 497 kts 270°
2026-05-05 03:31 -5.96256 108.47208 30145 ft 493 kts 270°
2026-05-05 03:32 -5.96253 108.43797 29664 ft 484 kts 270°
2026-05-05 03:32 -5.96252 108.40475 29140 ft 477 kts 270°
2026-05-05 03:32 -5.96250 108.37163 28579 ft 473 kts 270°
2026-05-05 03:32 -5.96248 108.33852 28020 ft 469 kts 270°
2026-05-05 03:33 -5.96245 108.30602 27459 ft 468 kts 270°
2026-05-05 03:33 -5.96242 108.27362 26887 ft 466 kts 270°
2026-05-05 03:33 -5.96238 108.24118 26314 ft 462 kts 270°
2026-05-05 03:33 -5.96234 108.20941 25743 ft 458 kts 270°
2026-05-05 03:34 -5.96230 108.17763 25170 ft 455 kts 270°
2026-05-05 03:34 -5.96226 108.14610 24597 ft 452 kts 270°
2026-05-05 03:34 -5.96222 108.11446 24013 ft 449 kts 270°
2026-05-05 03:34 -5.96218 108.08339 23442 ft 446 kts 270°
2026-05-05 03:35 -5.96212 108.05259 23162 ft 433 kts 270°
2026-05-05 03:35 -5.96207 108.02291 23068 ft 417 kts 270°
2026-05-05 03:35 -5.96201 107.99451 22933 ft 402 kts 270°
2026-05-05 03:35 -5.96196 107.96687 22688 ft 392 kts 270°
2026-05-05 03:36 -5.96195 107.93977 22151 ft 391 kts 270°
2026-05-05 03:36 -5.96194 107.91263 21635 ft 390 kts 270°
2026-05-05 03:36 -5.96194 107.88538 21136 ft 388 kts 270°
2026-05-05 03:36 -5.96194 107.85859 20653 ft 386 kts 270°
2026-05-05 03:37 -5.96194 107.83167 20171 ft 383 kts 270°
2026-05-05 03:37 -5.96193 107.80523 19697 ft 381 kts 270°
2026-05-05 03:37 -5.96193 107.77858 19217 ft 378 kts 270°
2026-05-05 03:37 -5.96193 107.75243 18746 ft 376 kts 269°
2026-05-05 03:38 -5.96192 107.72651 18278 ft 373 kts 269°
2026-05-05 03:38 -5.96191 107.70040 17806 ft 370 kts 269°
2026-05-05 03:38 -5.96190 107.67466 17340 ft 368 kts 269°
2026-05-05 03:38 -5.96189 107.64941 16874 ft 365 kts 269°
2026-05-05 03:39 -5.96188 107.62411 16435 ft 362 kts 269°
2026-05-05 03:39 -5.96189 107.59897 15992 ft 359 kts 270°
2026-05-05 03:39 -5.96189 107.57405 15534 ft 357 kts 269°
2026-05-05 03:39 -5.96189 107.54919 15083 ft 354 kts 269°
2026-05-05 03:40 -5.96188 107.52453 14638 ft 351 kts 269°
2026-05-05 03:40 -5.96188 107.50034 14199 ft 349 kts 269°
2026-05-05 03:40 -5.96188 107.47604 13764 ft 346 kts 269°
2026-05-05 03:40 -5.96187 107.45216 13332 ft 343 kts 269°
2026-05-05 03:41 -5.96187 107.42835 12903 ft 340 kts 269°
2026-05-05 03:41 -5.96186 107.40476 12476 ft 337 kts 269°
2026-05-05 03:41 -5.96185 107.38118 12050 ft 335 kts 269°
2026-05-05 03:41 -5.96184 107.35788 11630 ft 332 kts 269°
2026-05-05 03:42 -5.96183 107.33487 11213 ft 329 kts 269°
2026-05-05 03:42 -5.96182 107.31210 10912 ft 321 kts 270°
2026-05-05 03:42 -5.96179 107.29034 10868 ft 306 kts 270°
2026-05-05 03:42 -5.96176 107.26962 10863 ft 289 kts 269°
2026-05-05 03:43 -5.96174 107.24985 10861 ft 272 kts 269°
2026-05-05 03:43 -5.96173 107.23129 10866 ft 265 kts 269°
2026-05-05 03:43 -5.96171 107.21282 10868 ft 262 kts 269°
2026-05-05 03:43 -5.96169 107.19469 10862 ft 261 kts 269°
2026-05-05 03:44 -5.96166 107.17657 10875 ft 261 kts 269°
2026-05-05 03:44 -5.96164 107.15836 10871 ft 261 kts 269°
2026-05-05 03:44 -5.96161 107.13996 10870 ft 261 kts 269°
2026-05-05 03:44 -5.96159 107.12176 10873 ft 261 kts 269°
2026-05-05 03:45 -5.96227 107.10381 10889 ft 261 kts 257°
2026-05-05 03:45 -5.96745 107.08620 10895 ft 262 kts 248°
2026-05-05 03:45 -5.97391 107.06945 10851 ft 255 kts 246°
2026-05-05 03:45 -5.98043 107.05293 10587 ft 250 kts 246°
2026-05-05 03:46 -5.98676 107.03679 10229 ft 251 kts 247°
2026-05-05 03:46 -5.99310 107.02055 9876 ft 250 kts 247°
2026-05-05 03:46 -5.99947 107.00420 9507 ft 249 kts 247°
2026-05-05 03:46 -6.00586 106.98785 8756 ft 262 kts 247°
2026-05-05 03:47 -6.01267 106.97037 8021 ft 271 kts 248°
2026-05-05 03:47 -6.01954 106.95274 7423 ft 273 kts 248°
2026-05-05 03:47 -6.02643 106.93505 6904 ft 272 kts 247°
2026-05-05 03:47 -6.03335 106.91759 6422 ft 269 kts 247°
2026-05-05 03:48 -6.04020 106.90031 5918 ft 268 kts 248°
2026-05-05 03:48 -6.04696 106.88278 5395 ft 268 kts 247°
2026-05-05 03:48 -6.05365 106.86556 4957 ft 264 kts 247°
2026-05-05 03:48 -6.06040 106.84830 4455 ft 263 kts 247°
2026-05-05 03:49 -6.06711 106.83130 3957 ft 263 kts 247°
2026-05-05 03:49 -6.07383 106.81443 3481 ft 261 kts 246°
2026-05-05 03:49 -6.08059 106.79761 3052 ft 257 kts 246°
2026-05-05 03:49 -6.08708 106.78162 2933 ft 237 kts 246°
2026-05-05 03:50 -6.09317 106.76680 2850 ft 218 kts 246°
2026-05-05 03:50 -6.09866 106.75331 2760 ft 200 kts 246°
2026-05-05 03:50 -6.10361 106.74093 2536 ft 183 kts 246°
2026-05-05 03:50 -6.10814 106.72957 2315 ft 167 kts 246°
2026-05-05 03:51 -6.11243 106.71903 2122 ft 165 kts 245°
2026-05-05 03:51 -6.11692 106.70847 1776 ft 164 kts 243°
2026-05-05 03:51 -6.12220 106.69798 1222 ft 179 kts 239°
2026-05-05 03:51 -6.12946 106.68742 660 ft 186 kts 219°
2026-05-05 03:52 -6.13955 106.68221 802 ft 138 kts 181°